Henderson, KY

1:17 PM CST on November 12, 2019 (GMT -0600)
Henderson City-County

Weather History for KEHR - September, 2019

Change the Weather History Date:

Thursday, September 5, 2019

  Actual Average Record
Temperature  
Mean Temperature 70 °F -  
Max Temperature 80 °F 83 °F 104 °F (1954)
Min Temperature 60 °F 61 °F 42 °F (2010)
Cooling Degree Days 6    
Growing Degree Days 20 (Base 50)    
Moisture  
Dew Point 61 °F    
Average Humidity 77    
Maximum Humidity 97    
Minimum Humidity 52    
Precipitation  
Precipitation 0.00 in - - ()
Sea Level Pressure  
Sea Level Pressure 30.08 in    
Wind  
Wind Speed 4 mph (North)    
Max Wind Speed 9 mph    
Max Gust Speed -    
Visibility 10 miles    
Events      
Averages and records for this station are not official NWS values.
T = Trace of Precipitation, MM = Missing Value Source: NWS Daily Summary

Daily Weather History Graph

Daily Weather History Graph

Search for Another Location

Airport or City:

Astronomy

Sep. 05, 2019 Rise Set
Actual Time 6:23 AM CDT 7:14 PM CDT
Civil Twilight 5:57 AM CDT 7:40 PM CDT
Nautical Twilight 5:25 AM CDT 8:12 PM CDT
Astronomical Twilight 4:52 AM CDT 8:45 PM CDT
Moon 1:23 PM CDT (9/5) 11:37 PM CDT (9/5)
Length of Visible Light 13h 43m
Length of Day
12h 50m
Waxing Crescent, 45% of the Moon is Illuminated
Sep 5
Waxing Crescent
Sep 5
First Quarter
Sep 13
Full
Sep 21
Last Quarter
Sep 28
New

Hourly Weather History & Observations

Time (CDT) Temp. Heat Index Dew Point Humidity Pressure Visibility Wind Dir Wind Speed Gust Speed Precip Events Conditions
1:56 AM 61.0 °F - 60.1 °F 97% 30.08 in 10.0 mi Calm Calm - N/A   Clear
2:56 AM 61.0 °F - 60.1 °F 97% 30.08 in 10.0 mi NNW 3.5 mph - N/A   Clear
4:56 AM 63.0 °F - 60.1 °F 90% 30.08 in 10.0 mi North 3.5 mph - N/A   Clear
5:56 AM 62.1 °F - 60.1 °F 93% 30.10 in 10.0 mi North 3.5 mph - N/A   Clear
6:56 AM 63.0 °F - 61.0 °F 93% 30.12 in 10.0 mi North 5.8 mph - N/A   Clear
7:56 AM 64.9 °F - 62.1 °F 90% 30.13 in 10.0 mi NNE 6.9 mph - N/A   Clear
8:56 AM 68.0 °F - 63.0 °F 84% 30.14 in 10.0 mi ENE 5.8 mph - N/A   Clear
9:56 AM 72.0 °F - 64.0 °F 76% 30.13 in 10.0 mi North - - N/A   Clear
10:56 AM 75.0 °F - 63.0 °F 66% 30.12 in 10.0 mi Variable 6.9 mph - N/A   Clear
11:56 AM 78.1 °F - 62.1 °F 58% 30.12 in 10.0 mi Variable 4.6 mph - N/A   Partly Cloudy
12:56 PM 78.1 °F - 62.1 °F 58% 30.10 in 10.0 mi Variable 4.6 mph - N/A   Clear
1:56 PM 79.0 °F - 62.1 °F 56% 30.09 in 10.0 mi North 6.9 mph - N/A   Clear
2:56 PM 80.1 °F 81.1 °F 61.0 °F 52% 30.06 in 10.0 mi NNE 8.1 mph - N/A   Clear
3:56 PM 80.1 °F 81.2 °F 62.1 °F 54% 30.06 in 10.0 mi NNW 9.2 mph - N/A   Clear
4:56 PM 79.0 °F - 62.1 °F 56% 30.05 in 10.0 mi NNW 6.9 mph - N/A   Clear
5:56 PM 78.1 °F - 61.0 °F 56% 30.05 in 10.0 mi Variable 5.8 mph - N/A   Clear
6:56 PM 75.0 °F - 61.0 °F 62% 30.04 in 6.0 mi North 4.6 mph - N/A   Haze
7:56 PM 70.0 °F - 62.1 °F 76% 30.05 in 10.0 mi NNW 4.6 mph - N/A   Clear
8:56 PM 63.0 °F - 61.0 °F 93% 30.05 in 10.0 mi Calm Calm - N/A   Clear
9:56 PM 61.0 °F - 60.1 °F 97% 30.05 in 10.0 mi Calm Calm - N/A   Clear
10:56 PM 61.0 °F - 60.1 °F 97% 30.05 in 10.0 mi Calm Calm - N/A   Clear
11:56 PM 60.1 °F - 59.0 °F 96% 30.03 in 10.0 mi Calm Calm - N/A   Clear